Location: Unspecified
(0.0000°N, 0.0000°E)
Time: 08:04:49
(UTC+00:00)

A-11 Canister half - Visible Passes

Search period start: 08 February 2023 00:00
Search period end: 18 February 2023 00:00
Orbit: 1525 x 1683 km, 47.3° (Epoch: 07 February)

Date Brightness Start Highest point End Pass type
(mag) Time Alt. Az. Time Alt. Az. Time Alt. Az.
14 Feb 11.2 22:14:35 10° SSW 22:15:03 11° SSW 22:15:03 11° SSW visible
15 Feb 11.0 21:53:02 10° SSW 21:54:26 14° S 21:54:26 14° S visible
16 Feb 10.8 21:31:29 10° S 21:33:52 17° S 21:33:52 17° S visible
17 Feb 10.6 21:09:58 10° S 21:13:22 20° S 21:13:22 20° S visible
